Вернуться в каталог

COSMOS 1823 DEB

АктивенLEO
NORAD 18969·DEBRIS·🇷🇺 Russia

Запущен Feb 20, 1987 с Plesetsk Cosmodrome

Loading…

Ближайшие Пролёты (ближайшие 24 часа)

TLE

СвежийSource: Space-Track

Эпоха: Sep 14, 2026, 20:36 UTC

1 18969U 87020AW  26257.85866086  .00000089  00000-0  75916-3 0  9997
2 18969  73.6181 280.1501 0035565  41.8742 134.4724 12.43750112755477

Отслеживайте COSMOS 1823 DEB в реальном времени с AllMySat

Download on the App Store